Temperature
25 25 24 25 31 31 29 29 29 29 28 27 26 27 27 26 26 23 21 20 19 19 18 18 19 19 19 19 19 19 19 19 18 18 18 18 18 18 18 18 18 18 18 18 18 18 18 18 18
25 25 25 30 32 30 29 29 29 28 27 26 26 26 26 24 22 21 20 19 19 19 18 18 19 19 19 19 19 18 18 18 18 18 18 18 18 18 18 18 18 18 18 18 18 18 18 18 18
25 25 29 33 31 30 29 29 29 28 27 27 26 26 25 23 22 21 20 20 20 19 18 18 19 19 19 18 18 18 18 18 18 18 18 18 18 18 18 18 18 18 18 18 18 18 18 18 18
25 28 31 32 30 30 30 30 29 29 27 27 27 26 23 22 21 21 20 20 20 19 19 18 19 19 19 18 18 18 18 18 18 18 18 18 18 18 18 18 18 18 18 18 18 18 18 18 18
27 32 33 32 31 30 30 30 29 29 28 27 27 26 23 20 21 20 20 20 20 20 19 18 19 18 18 18 18 18 18 18 18 18 18 18 18 18 18 18 18 18 18 18 18 18 18 18 18
31 34 32 31 30 31 31 30 29 29 28 27 27 26 22 20 20 20 20 20 20 20 19 18 19 18 18 18 18 18 18 18 18 18 18 18 18 18 18 18 18 18 18 18 18 18 17 17 17
33 34 32 32 31 31 31 30 30 29 28 27 27 26 23 21 20 20 20 20 20 20 19 18 18 18 18 18 18 18 18 18 18 18 18 18 18 18 18 17 17 17 17 17 18 18 17 17 17
32 34 33 32 31 31 31 30 29 29 28 26 26 26 24 21 20 20 20 19 19 19 19 18 18 18 18 18 18 18 18 18 18 18 18 18 18 18 18 17 17 17 17 17 17 17 17 17 17
31 34 32 32 32 31 31 30 29 28 27 26 26 26 24 21 20 20 20 19 19 18 19 19 19 18 18 18 18 18 18 18 18 18 18 17 17 17 17 17 17 17 17 17 17 17 17 17 17
33 34 33 33 33 32 31 30 29 29 28 27 25 24 22 21 21 21 21 20 20 19 19 18 18 18 18 18 18 17 17 17 17 17 17 17 17 17 17 17 17 17 17 17 17 17 17 17 17
34 33 33 33 32 32 31 30 30 30 30 28 26 24 22 22 22 22 22 21 21 20 19 19 18 18 18 18 18 18 18 17 17 17 17 17 17 17 17 17 17 17 17 17 17 17 17 17 17
34 33 33 33 32 31 31 31 30 30 29 28 26 24 23 23 22 22 22 21 20 20 19 19 19 18 18 18 18 18 18 18 17 17 17 17 17 17 17 17 17 17 17 17 17 17 17 17 17
33 33 32 32 32 31 31 31 30 30 28 27 26 24 24 23 23 22 21 21 20 20 19 19 19 18 18 18 18 18 18 18 18 17 17 17 17 17 17 17 17 17 17 17 17 17 17 17 17
33 33 32 32 32 31 31 31 30 29 28 27 26 25 24 24 23 22 21 20 20 20 19 19 19 19 19 18 18 18 18 18 18 17 17 17 17 17 17 17 17 17 17 17 17 17 17 17 17
32 33 33 32 32 31 32 31 31 29 28 27 26 25 24 24 23 22 21 21 20 20 20 19 19 19 19 18 18 18 18 18 18 17 17 17 17 17 17 17 17 17 17 17 17 17 17 17 17
34 33 33 32 32 31 32 32 31 29 28 28 27 25 24 23 23 22 21 21 20 20 20 20 19 19 19 19 18 18 18 18 18 17 17 17 17 17 17 17 17 17 17 17 17 17 17 17 17
33 33 33 32 32 32 32 32 32 29 29 28 27 26 25 23 23 22 21 21 21 20 20 20 19 19 19 19 18 18 18 18 18 18 18 17 17 17 17 17 17 17 17 17 17 17 17 17 17
33 33 33 32 32 32 32 32 32 30 29 29 27 26 25 24 23 22 21 21 21 20 20 20 19 19 19 18 18 18 18 18 18 18 18 17 17 17 17 17 17 17 17 17 17 17 17 17 17
33 33 33 32 32 32 32 32 32 30 29 29 28 27 25 25 24 22 21 21 21 21 20 20 20 19 19 19 18 18 18 18 18 18 17 17 17 17 17 17 17 17 17 17 17 17 17 17 17
32 32 32 32 32 32 32 32 32 31 30 29 28 27 26 25 24 22 21 21 21 21 21 20 20 19 19 19 18 18 18 18 18 18 18 17 17 17 17 17 17 17 17 17 17 17 17 17 17
32 32 32 32 32 32 32 32 32 31 30 29 28 27 27 26 25 23 22 21 21 21 21 20 20 20 19 19 18 18 18 18 18 18 18 18 18 17 17 17 17 17 17 17 17 17 17 17 17
32 32 32 32 32 32 32 32 32 32 31 30 29 28 27 26 25 23 22 22 21 21 21 20 20 20 19 19 18 18 18 18 18 18 18 18 18 18 17 17 17 17 17 17 17 17 17 17 17
32 32 32 32 32 32 32 32 33 32 32 31 30 29 28 26 25 24 23 22 22 21 21 20 20 20 20 19 19 19 18 18 18 18 18 18 18 17 17 18 17 18 17 17 17 17 17 17 17
31 31 31 32 32 31 31 31 32 33 32 32 31 29 28 26 25 24 23 22 21 21 21 21 21 20 20 20 19 19 19 18 18 18 18 17 17 17 17 17 17 17 17 17 17 17 17 17 17
31 31 31 30 31 31 31 31 32 32 32 31 31 29 28 26 25 24 23 22 21 21 21 21 21 21 20 20 20 19 19 19 18 18 18 18 18 17 17 17 18 17 18 17 17 17 17 17 17
31 32 30 30 30 31 30 31 32 32 31 30 30 29 27 26 26 24 23 22 22 21 21 21 21 21 20 20 20 19 19 18 18 18 18 17 17 17 17 17 17 17 17 17 17 17 17 17 17
31 31 33 31 31 30 31 31 32 32 31 31 30 29 28 27 26 25 24 23 22 22 21 21 21 21 20 20 20 19 19 19 18 18 18 17 18 17 17 17 17 17 17 17 17 17 17 17 17
31 32 31 31 29 29 30 31 32 32 31 31 30 29 28 27 26 25 24 23 22 22 21 21 21 20 20 20 20 19 19 19 19 18 18 18 18 18 17 17 17 17 17 17 17 17 17 17 17
30 30 31 31 31 30 30 31 32 31 31 31 30 29 28 27 26 25 24 23 22 22 21 21 21 20 20 20 20 19 19 19 19 18 18 18 18 18 17 17 17 17 17 17 17 17 16 16 16
31 31 31 30 29 30 30 31 32 31 31 30 30 29 28 27 26 25 24 23 23 22 21 21 21 20 20 20 20 20 19 19 18 18 18 18 18 17 17 17 17 17 17 17 17 16 16 16 16
Wind_Speed
8 7 5 4 2 11 17 14 12 10 8 8 8 7 9 10 8 10 10 12 12 12 14 13 11 12 12 12 12 13 13 13 13 13 13 12 12 12 12 12 12 13 12 12 12 12 12 12 11
5 4 4 1 8 14 15 13 13 12 10 8 8 8 10 10 9 11 11 12 13 12 13 13 13 11 12 12 12 12 12 12 12 12 12 12 12 11 12 12 12 12 12 11 12 12 11 11 11
5 5 2 6 14 15 14 12 11 10 8 6 7 8 8 8 10 9 12 14 12 12 12 14 12 11 11 11 12 12 11 11 11 11 11 11 11 11 11 11 11 11 11 11 11 11 11 11 11
4 3 2 10 17 15 12 10 9 9 9 7 8 10 8 8 6 11 15 13 13 12 12 15 11 11 11 11 11 11 11 10 10 10 10 10 10 10 11 10 11 11 11 11 11 11 11 11 11
4 1 9 15 16 12 10 8 6 7 7 8 9 11 10 7 10 15 14 12 12 12 12 15 12 11 11 10 10 10 10 9 9 9 9 9 10 10 10 10 11 11 11 10 10 10 10 10 10
1 3 10 14 14 10 9 7 8 9 10 9 10 12 8 8 12 13 13 11 11 11 12 14 12 10 10 9 9 9 9 9 8 8 9 9 9 9 9 10 10 10 11 10 10 9 10 10 9
3 7 12 13 12 11 8 6 7 8 9 8 8 10 9 11 12 12 12 10 10 10 11 11 12 12 10 9 9 8 8 8 8 8 8 8 9 9 9 9 10 10 10 10 10 10 10 9 9
2 4 10 11 10 11 7 6 6 7 8 8 5 7 10 13 13 12 12 10 9 8 9 9 8 9 10 11 9 8 8 8 8 9 9 9 9 9 9 9 10 9 10 10 10 10 9 8 9
3 4 10 10 9 8 7 7 6 6 8 6 5 7 13 18 15 13 12 10 9 8 7 8 8 8 7 8 10 9 9 8 8 9 9 8 8 9 8 10 9 9 9 9 9 9 8 8 10
2 7 10 7 6 6 6 5 6 5 7 8 9 11 17 17 15 14 13 12 11 10 9 7 6 7 7 6 7 6 6 7 5 6 7 6 6 6 8 10 8 8 9 9 8 8 8 7 8
3 6 6 4 4 5 6 5 4 4 5 6 11 15 17 16 14 13 11 10 11 10 9 8 7 6 5 5 4 4 4 5 5 5 5 5 5 6 7 7 8 7 8 7 9 8 5 4 4
2 4 3 3 3 3 4 5 4 3 5 6 11 17 18 16 14 12 11 10 10 9 9 8 7 6 4 4 4 4 3 4 4 6 5 5 4 4 4 4 5 5 5 4 4 4 4 4 4
2 3 3 3 3 4 4 5 4 4 5 9 13 16 16 15 13 11 10 10 9 9 9 8 8 6 5 4 3 3 3 3 5 4 5 4 4 3 4 3 3 3 4 5 4 4 4 4 4
2 2 3 3 4 4 5 4 4 5 7 11 13 14 14 13 13 12 11 11 10 9 9 8 8 8 6 5 4 3 3 3 3 4 5 4 4 4 4 4 3 3 3 3 3 4 4 3 3
2 3 5 3 3 3 4 5 4 7 9 11 12 12 13 13 12 12 12 11 11 10 9 9 9 8 7 6 5 4 4 4 3 3 5 5 5 5 4 3 3 3 3 3 3 3 3 4 4
5 6 5 4 3 3 6 2 6 8 9 10 11 12 12 12 12 11 11 11 10 10 10 9 8 8 8 6 5 4 4 3 3 3 4 5 4 5 4 3 3 3 3 4 3 3 3 3 3
7 5 3 4 3 4 6 2 5 7 9 10 11 11 12 12 12 11 11 11 10 10 10 9 8 8 8 6 5 5 4 4 4 4 4 5 6 5 5 3 3 4 4 3 4 3 3 3 3
4 4 3 2 2 5 7 4 4 6 8 9 10 11 11 11 12 12 11 11 10 10 10 9 10 9 8 6 5 4 4 4 4 4 4 5 6 6 5 5 4 5 4 3 3 2 3 3 3
3 5 3 1 1 4 6 5 4 6 8 9 10 11 11 11 10 10 11 11 11 10 11 11 11 10 8 6 6 5 5 5 4 5 5 6 6 6 5 5 4 5 4 4 5 4 5 5 3
6 6 5 2 1 4 5 6 4 6 8 8 10 11 11 10 10 10 11 11 12 12 12 12 12 11 10 7 5 4 3 4 4 4 4 6 6 6 6 5 5 5 4 5 5 4 4 4 4
7 6 4 2 3 5 6 6 5 5 7 8 9 10 10 11 11 12 12 12 12 12 12 11 12 11 10 9 6 5 4 4 5 5 5 6 6 7 6 5 6 5 6 5 5 6 6 5 5
7 3 3 4 6 3 4 4 3 4 6 8 9 10 10 11 11 11 12 12 12 12 11 11 11 11 11 10 8 8 6 6 5 5 4 5 6 6 7 6 6 6 6 4 6 6 5 6 6
3 1 3 5 6 6 5 6 1 4 4 6 7 9 9 10 11 11 11 11 11 11 10 10 11 11 11 10 9 9 8 6 5 5 5 5 5 6 6 6 5 5 6 5 5 4 6 6 7
5 5 4 7 8 8 4 6 4 1 1 2 5 7 8 9 10 10 10 11 10 10 10 10 11 10 10 11 10 10 9 7 6 5 5 5 4 4 5 5 4 5 5 5 5 5 7 6 6
9 8 7 8 8 6 2 6 3 1 0 1 2 6 7 9 10 10 11 12 11 11 11 11 11 11 11 11 10 9 8 8 8 7 6 5 4 4 5 4 4 4 4 5 5 5 6 6 6
11 12 9 7 6 4 5 5 2 1 0 2 3 6 8 9 10 10 11 12 12 12 11 11 11 10 10 10 9 8 7 7 6 6 5 5 4 4 3 4 3 4 4 5 4 5 5 5 6
10 12 10 9 8 7 4 3 3 3 3 4 5 7 8 9 10 10 11 11 12 11 11 11 10 10 9 9 9 8 7 7 6 5 6 5 4 4 4 4 4 4 4 4 4 4 4 4 5
7 9 8 10 8 9 7 6 3 2 2 4 6 7 8 9 10 10 10 11 11 11 10 10 10 9 9 9 8 7 8 7 6 5 5 4 4 4 4 4 4 4 4 4 4 4 3 4 4
9 9 9 9 9 9 7 4 2 1 1 2 5 7 8 9 10 10 10 10 11 11 11 10 10 9 8 8 8 7 7 7 6 5 5 5 4 4 4 3 3 3 3 3 3 3 3 3 3
11 12 13 11 9 9 9 4 5 1 0 1 2 5 7 8 9 10 11 11 11 11 11 11 10 10 9 8 8 7 7 7 6 6 5 5 5 4 4 3 3 3 2 2 3 3 3 3 4
Wind_Direction
193 192 221 240 111 70 66 65 69 76 73 71 69 64 64 50 50 92 115 125 127 128 126 129 122 118 114 111 110 112 112 113 115 118 119 117 115 113 113 112 111 110 110 112 114 116 116 115 116
184 202 237 277 63 73 68 65 68 69 87 94 81 78 76 68 71 107 125 130 135 129 129 124 122 121 118 115 113 113 111 110 111 113 117 116 115 113 112 112 113 114 114 113 115 117 116 117 117
196 236 294 63 60 64 71 71 79 86 92 93 87 68 66 81 101 117 128 138 135 125 124 120 127 124 121 117 114 113 113 111 110 111 114 117 116 116 113 112 113 115 117 116 117 117 116 115 114
225 219 87 68 69 66 71 79 89 96 90 88 98 89 80 78 104 123 133 141 132 130 131 124 130 126 123 119 117 115 115 113 113 113 114 116 117 116 115 113 112 114 116 119 119 119 118 116 114
249 50 81 75 72 71 73 74 77 83 88 96 99 102 93 83 112 127 137 139 135 132 126 126 129 127 125 122 121 120 117 115 116 117 117 117 118 117 115 113 112 113 115 118 119 118 120 119 117
252 69 72 75 76 77 78 80 84 87 98 104 107 106 96 119 129 136 139 142 135 132 129 125 130 129 128 126 126 125 121 119 119 120 117 116 117 117 117 114 112 112 114 118 121 121 119 118 118
22 66 74 75 80 80 73 76 81 97 105 104 113 110 121 135 137 141 139 138 137 136 132 136 142 141 138 131 128 125 122 123 121 120 115 114 117 118 118 116 116 117 119 120 120 118 117 118 122
341 88 81 75 74 80 90 89 83 90 96 111 117 120 140 145 145 144 142 142 139 140 137 138 142 139 147 141 134 128 124 123 124 124 127 126 126 125 129 130 119 120 122 122 121 118 117 120 125
273 81 74 68 69 89 106 105 96 98 119 117 95 102 130 142 149 150 149 149 149 151 150 148 143 147 148 139 136 143 141 137 142 134 136 153 143 133 138 110 117 124 124 124 124 122 122 131 132
310 71 70 64 71 97 113 112 125 136 131 127 119 115 132 147 156 160 160 160 161 161 160 153 154 155 149 135 137 146 150 143 148 132 140 139 123 121 115 118 124 125 128 132 130 138 159 175 145
29 60 70 79 84 105 127 129 141 140 125 141 149 148 153 159 165 166 163 164 160 161 161 163 161 160 148 142 144 141 140 139 141 131 133 131 138 136 132 138 141 141 152 146 146 170 159 140 127
69 62 61 80 95 124 131 137 140 116 84 118 147 155 161 168 170 170 166 164 161 164 167 166 160 163 159 150 148 156 159 158 151 145 158 150 144 140 133 141 143 151 145 138 152 143 137 140 149
82 68 73 98 125 130 145 146 126 121 107 130 144 157 167 172 172 171 167 168 171 173 172 172 170 164 165 171 190 170 173 178 157 153 159 166 159 148 146 142 154 158 144 156 162 147 143 159 162
55 109 125 124 126 146 160 149 155 129 136 145 156 165 172 176 177 173 175 179 180 180 177 176 179 174 177 186 192 188 183 189 181 171 165 177 162 156 164 162 169 162 165 152 158 152 161 173 158
195 175 152 144 158 165 189 176 172 147 153 160 167 171 175 181 184 186 185 186 184 182 181 181 185 183 187 193 195 193 197 190 190 173 172 184 177 168 181 167 182 176 173 170 189 174 177 181 177
211 211 182 147 189 190 236 181 150 162 170 172 173 176 182 188 193 191 190 191 188 186 186 189 192 186 190 196 201 198 199 194 199 195 185 189 185 188 199 186 185 182 200 198 188 207 201 195 192
212 218 187 153 190 214 240 259 148 176 186 183 183 184 188 191 199 196 197 194 194 192 190 191 197 193 194 196 207 210 197 204 210 207 203 194 201 199 209 206 179 200 208 213 219 188 217 202 204
206 220 208 205 185 237 242 252 177 190 200 195 190 191 191 196 198 196 196 196 194 193 192 192 195 192 190 193 201 210 203 200 214 216 211 207 206 205 216 212 208 219 214 219 225 220 229 228 222
252 246 234 203 285 254 253 261 224 194 208 204 198 196 197 199 192 190 193 196 194 192 193 193 194 187 189 193 202 203 203 200 207 214 206 211 214 208 222 236 209 226 221 227 226 226 223 226 224
230 240 227 184 191 264 273 268 237 206 214 214 208 203 202 196 188 187 193 194 196 193 195 193 192 191 196 194 200 209 210 211 209 220 210 217 214 220 220 226 230 225 225 225 228 226 243 242 222
225 246 249 234 215 226 270 242 201 194 207 213 217 212 207 201 194 189 192 194 195 194 195 194 191 191 197 194 196 197 199 216 215 216 212 218 217 222 235 229 238 235 235 227 228 232 234 240 237
219 227 244 236 247 243 278 282 169 182 200 206 210 207 205 201 197 192 190 192 194 194 191 189 189 191 192 192 202 207 213 220 219 222 218 217 222 227 228 233 236 240 246 239 238 233 239 242 244
214 152 222 241 252 264 245 278 223 176 207 201 200 202 200 196 195 192 189 189 189 188 186 185 186 190 191 196 204 212 222 225 221 217 214 226 223 227 228 228 234 235 244 245 254 253 247 241 245
160 178 195 229 244 247 255 274 271 195 205 178 177 185 188 186 186 185 183 182 183 183 183 182 183 189 191 197 206 214 220 219 221 221 221 224 223 224 225 229 233 239 246 241 241 245 241 246 246
207 221 224 225 227 239 172 258 276 2 339 248 183 173 173 175 177 176 179 180 181 182 183 183 184 189 192 197 205 210 213 213 217 224 219 229 231 223 219 230 231 239 241 243 241 239 246 244 242
216 231 240 251 248 224 183 248 260 92 225 217 185 163 163 167 171 174 177 178 181 183 184 185 187 189 190 196 200 205 208 215 217 217 229 226 237 239 231 225 231 237 237 238 239 243 244 245 246
212 228 245 252 264 267 242 247 237 181 184 169 166 163 165 167 168 171 173 177 179 183 185 185 186 188 189 193 194 196 201 213 220 217 223 226 228 233 222 223 227 235 236 237 236 243 248 253 255
249 225 223 238 245 252 242 237 235 176 179 177 179 177 170 168 170 171 173 175 175 177 177 180 182 185 187 189 193 192 197 204 213 220 219 224 228 232 223 219 220 227 231 229 232 238 246 253 260
195 211 226 234 247 257 255 233 117 169 206 203 193 185 177 176 174 173 172 172 171 171 171 174 178 182 184 187 188 190 191 196 203 206 210 213 218 214 212 213 219 225 232 236 233 243 245 254 262
225 221 216 226 229 245 265 250 108 121 292 228 196 177 176 174 172 170 169 169 172 172 172 174 178 181 181 181 181 183 185 191 194 196 200 200 202 204 200 207 215 222 224 232 244 255 255 259 266
Height
1500 1500 1500 1501 1495 1497 1506 1505 1502 1505 1509 1513 1515 1515 1516 1519 1521 1534 1538 1538 1541 1542 1543 1542 1543 1544 1545 1546 1546 1547 1548 1548 1549 1550 1550 1551 1551 1552 1553 1554 1555 1556 1556 1557 1558 1559 1560 1560 1561
1502 1502 1503 1498 1494 1508 1514 1507 1508 1510 1515 1517 1518 1519 1520 1526 1531 1535 1538 1540 1543 1544 1545 1545 1545 1546 1547 1548 1549 1549 1550 1550 1551 1552 1552 1553 1554 1554 1555 1556 1557 1557 1558 1559 1560 1560 1561 1562 1563
1503 1503 1503 1494 1500 1510 1514 1509 1511 1515 1517 1518 1520 1522 1525 1531 1535 1538 1540 1542 1545 1546 1547 1546 1547 1548 1549 1550 1550 1551 1552 1552 1553 1554 1554 1555 1556 1556 1557 1558 1558 1559 1560 1561 1561 1562 1563 1564 1564
1506 1505 1501 1497 1507 1508 1508 1510 1513 1515 1518 1520 1521 1526 1531 1536 1538 1540 1542 1544 1546 1548 1549 1547 1548 1550 1550 1551 1552 1553 1554 1554 1555 1555 1556 1557 1557 1558 1559 1559 1560 1561 1561 1562 1563 1564 1565 1565 1566
1507 1501 1497 1504 1508 1509 1510 1513 1514 1514 1518 1521 1523 1527 1534 1539 1540 1542 1544 1546 1548 1550 1551 1550 1550 1551 1552 1553 1554 1555 1555 1556 1556 1557 1558 1558 1559 1559 1560 1561 1562 1562 1563 1564 1565 1566 1566 1567 1568
1505 1498 1502 1511 1512 1510 1512 1514 1515 1517 1521 1524 1526 1529 1537 1540 1542 1544 1546 1548 1550 1551 1552 1551 1552 1553 1554 1555 1555 1556 1557 1557 1558 1558 1559 1560 1560 1561 1562 1563 1563 1564 1565 1565 1566 1567 1568 1569 1570
1505 1499 1506 1508 1511 1512 1514 1516 1516 1518 1521 1525 1528 1531 1538 1541 1543 1545 1547 1549 1551 1553 1554 1554 1555 1554 1555 1556 1557 1558 1558 1559 1559 1560 1560 1561 1562 1563 1563 1564 1565 1565 1566 1567 1568 1569 1569 1570 1571
1507 1500 1504 1507 1510 1514 1515 1517 1519 1520 1524 1529 1530 1531 1537 1542 1543 1546 1548 1550 1552 1553 1555 1555 1557 1558 1558 1558 1558 1559 1559 1560 1560 1561 1561 1562 1563 1564 1565 1566 1566 1567 1568 1568 1569 1570 1571 1572 1573
1508 1501 1508 1508 1511 1513 1515 1518 1522 1524 1527 1529 1531 1532 1537 1540 1543 1546 1549 1551 1552 1554 1555 1557 1558 1559 1560 1561 1560 1560 1561 1561 1562 1562 1563 1564 1565 1566 1567 1567 1568 1568 1569 1570 1571 1572 1573 1573 1574
1505 1504 1509 1509 1510 1512 1516 1518 1522 1524 1526 1530 1534 1536 1539 1541 1544 1547 1549 1551 1552 1554 1556 1557 1558 1559 1561 1562 1562 1563 1563 1563 1564 1564 1564 1565 1566 1567 1568 1568 1569 1570 1571 1571 1572 1573 1574 1575 1577
1506 1506 1508 1510 1512 1514 1516 1519 1521 1521 1523 1528 1532 1536 1539 1542 1545 1547 1549 1551 1553 1554 1556 1557 1558 1560 1562 1562 1563 1564 1564 1564 1565 1565 1565 1566 1567 1568 1569 1570 1571 1571 1572 1574 1574 1575 1577 1578 1578
1509 1510 1511 1512 1514 1515 1516 1519 1521 1522 1525 1529 1532 1536 1539 1542 1545 1547 1549 1551 1553 1555 1556 1557 1558 1559 1560 1562 1563 1563 1565 1565 1566 1565 1566 1567 1568 1569 1570 1571 1572 1573 1574 1574 1576 1576 1577 1578 1578
1510 1512 1513 1513 1515 1516 1518 1519 1521 1524 1528 1530 1533 1536 1539 1542 1545 1547 1549 1551 1553 1554 1556 1557 1558 1559 1560 1561 1562 1564 1564 1566 1566 1566 1567 1568 1569 1570 1571 1571 1572 1574 1575 1575 1576 1577 1577 1578 1579
1513 1512 1513 1514 1515 1517 1518 1519 1522 1525 1528 1531 1534 1537 1539 1542 1544 1547 1549 1550 1552 1554 1555 1557 1558 1559 1560 1561 1562 1564 1565 1565 1567 1567 1568 1568 1570 1570 1571 1572 1573 1574 1575 1576 1576 1577 1577 1578 1579
1513 1511 1512 1514 1515 1517 1517 1518 1520 1524 1528 1530 1533 1536 1539 1542 1544 1546 1548 1550 1551 1553 1554 1556 1557 1558 1559 1561 1562 1564 1565 1566 1567 1567 1567 1568 1569 1570 1571 1572 1573 1574 1575 1575 1576 1577 1578 1578 1579
1509 1509 1513 1513 1514 1516 1518 1518 1517 1523 1526 1529 1532 1535 1538 1541 1543 1545 1547 1549 1551 1552 1554 1555 1557 1558 1559 1561 1562 1564 1565 1565 1566 1567 1568 1568 1569 1570 1570 1572 1573 1573 1575 1576 1576 1577 1578 1578 1578
1509 1511 1513 1513 1513 1514 1514 1514 1516 1521 1524 1527 1530 1533 1536 1539 1542 1544 1545 1547 1549 1550 1552 1554 1556 1557 1559 1560 1561 1563 1563 1564 1565 1566 1567 1567 1568 1569 1570 1571 1572 1573 1574 1575 1576 1576 1577 1577 1577
1514 1512 1513 1513 1511 1512 1512 1511 1514 1519 1522 1524 1528 1531 1534 1536 1539 1541 1543 1545 1547 1548 1550 1552 1554 1555 1557 1558 1559 1561 1562 1562 1564 1565 1565 1566 1567 1568 1569 1570 1571 1572 1573 1573 1574 1574 1574 1575 1576
1509 1511 1513 1512 1511 1511 1510 1510 1510 1516 1519 1521 1525 1528 1531 1534 1537 1539 1541 1543 1544 1546 1548 1549 1551 1553 1555 1556 1558 1559 1561 1562 1563 1564 1564 1565 1566 1567 1568 1570 1570 1570 1572 1572 1573 1573 1573 1574 1575
1511 1513 1512 1512 1512 1512 1510 1509 1507 1513 1516 1519 1521 1525 1528 1531 1535 1536 1538 1540 1541 1543 1545 1547 1549 1551 1553 1554 1556 1557 1559 1561 1562 1562 1563 1564 1565 1566 1568 1568 1568 1569 1569 1570 1570 1570 1571 1573 1573
1511 1512 1511 1513 1512 1510 1511 1509 1507 1509 1514 1517 1519 1522 1525 1528 1531 1533 1535 1537 1539 1541 1543 1545 1547 1549 1551 1553 1555 1556 1557 1559 1560 1561 1562 1562 1563 1564 1565 1566 1567 1567 1568 1568 1568 1568 1569 1570 1571
1513 1508 1511 1513 1515 1511 1513 1517 1507 1505 1509 1512 1515 1518 1521 1525 1528 1531 1533 1535 1537 1539 1541 1542 1544 1546 1548 1550 1552 1554 1556 1557 1558 1559 1560 1561 1562 1562 1563 1564 1564 1564 1565 1566 1566 1567 1567 1567 1568
1509 1510 1510 1511 1513 1515 1512 1516 1507 1503 1506 1506 1510 1514 1518 1522 1525 1528 1530 1532 1535 1537 1539 1540 1542 1544 1546 1548 1550 1552 1554 1555 1557 1557 1558 1559 1560 1560 1561 1561 1562 1562 1563 1563 1563 1564 1564 1565 1565
1510 1511 1512 1511 1510 1525 1517 1520 1514 1500 1503 1503 1507 1512 1516 1519 1523 1526 1528 1531 1533 1535 1537 1538 1540 1542 1543 1545 1547 1549 1551 1552 1554 1555 1556 1557 1558 1558 1559 1559 1559 1559 1560 1560 1560 1560 1561 1561 1561
1510 1514 1523 1526 1525 1522 1514 1518 1511 1500 1502 1504 1506 1510 1514 1517 1521 1524 1526 1528 1530 1533 1535 1536 1538 1540 1542 1543 1545 1547 1548 1550 1551 1553 1554 1555 1556 1556 1556 1557 1556 1557 1556 1557 1557 1557 1558 1558 1558
1507 1508 1523 1532 1527 1517 1517 1516 1502 1499 1503 1505 1506 1509 1512 1516 1519 1521 1524 1526 1528 1531 1533 1535 1537 1538 1540 1541 1543 1545 1546 1548 1550 1550 1552 1552 1553 1554 1554 1554 1554 1554 1554 1554 1554 1555 1555 1555 1555
1506 1506 1498 1510 1516 1521 1512 1507 1499 1498 1500 1503 1505 1508 1511 1514 1517 1520 1522 1525 1527 1529 1531 1533 1535 1537 1538 1540 1542 1543 1544 1546 1547 1548 1549 1550 1550 1551 1551 1551 1551 1552 1552 1552 1552 1552 1552 1552 1552
1501 1499 1506 1511 1528 1530 1519 1513 1506 1499 1499 1500 1503 1506 1510 1513 1516 1518 1521 1523 1525 1528 1530 1532 1534 1535 1537 1538 1540 1541 1542 1543 1545 1546 1547 1547 1548 1548 1548 1549 1549 1549 1549 1549 1549 1549 1549 1549 1549
1506 1506 1504 1505 1508 1522 1525 1512 1494 1497 1498 1499 1502 1505 1508 1511 1514 1517 1520 1522 1524 1526 1528 1530 1532 1534 1535 1537 1538 1539 1541 1542 1543 1544 1544 1545 1545 1546 1546 1546 1546 1546 1547 1547 1547 1547 1547 1547 1547
1496 1497 1502 1512 1516 1514 1514 1508 1492 1495 1497 1499 1501 1504 1506 1509 1512 1515 1518 1520 1523 1525 1527 1529 1531 1532 1534 1535 1536 1538 1539 1540 1541 1542 1542 1543 1543 1544 1544 1544 1544 1544 1545 1545 1545 1545 1545 1544 1544